Location: Haliburton Scout Reserve
(45.0900°N, 78.3200°W)
Time: 01:47:26
(UTC-04:00)

ESTCUBE 1 - Pass Details

Date: 22 May 2022
Orbit: 644 x 659 km, 97.9° (Epoch: 27 June)

Event Time Altitude Azimuth Distance (km) Brightness Sun altitude
Exits shadow 22:11:37 13° 102° (ESE) 1,845 ? -12.8°
Maximum altitude 22:14:06 20° 64° (ENE) 1,502 ? -13.1°
Drops below altitude 10° 22:17:22 10° 17° (NNE) 2,068 ? -13.5°
Sets 22:20:03 0° 1° (N) 2,981 ? -13.8°
